Flag for Germany Weather past 2 weeks in Achern, Baden-Württemberg, Germany

30 °F

Ice fog.

Feels Like: 30 °F
Forecast: 29 / 41 °F
Wind: 2 mph from North

Location: Karlsruhe - Baden Wurttemberg

Current Time: Nov 27, 2015 at 6:37:53 AM

Latest Report: Nov 27, 2015 at 5:20 AM

Visibility: 0 mi

Pressure: 30.15 "Hg

Humidity: 100%

Dew point: 30 °F

Location of AchernLocation

Historic Weather in Achern — Graph


Achern temperature yesterday

Maximum temperature yesterday: 43 °F (at 1:20 PM)
Minimum temperature yesterday: 32 °F (at 11:20 PM)
Average temperature yesterday: 39 °F

Past Weeks' High & Low Weather Summary

High63 °F (Nov 18, 5:20 AM)100% (Nov 13, 4:50 AM)30.48 "Hg (Nov 13, 4:50 AM)
Low23 °F (Nov 24, 6:20 AM)44% (Nov 14, 1:50 PM)29.42 "Hg (Nov 21, 11:50 AM)
Average47 °F77%30.04 "Hg
* Reported Nov 11 11:20 PM — Nov 26 11:20 PM, Achern, Weather by CustomWeather, © 2015

Note: Actual official high and low records may vary slightly from our data, if they occured in-between our weather recording intervals... More about our weather records


Achern weather history for previous 24 hours

Time TempWeatherWind HumidityBarometerVisibility
11:20 PM
Thu, Nov 26
32 °FFog.3 mph100%30.15 "Hg1 mi
10:50 PM36 °FLight fog.3 mph100%30.18 "Hg4 mi
10:20 PM36 °FFog.3 mph93%30.18 "Hg5 mi
9:50 PM36 °FLight fog.2 mph93%30.18 "Hg4 mi
9:20 PM37 °FFog.2 mph93%30.15 "Hg4 mi
8:50 PM39 °FPassing clouds.1 mph93%30.15 "Hg5 mi
8:20 PM39 °FPassing clouds.No wind93%30.15 "Hg5 mi
7:50 PM41 °FPassing clouds.2 mph93%30.15 "HgN/A
7:20 PM41 °FPartly cloudy.2 mph93%30.15 "Hg6 mi
6:50 PM41 °FPartly cloudy.5 mph93%30.12 "Hg5 mi
6:20 PM41 °FLight rain. Passing clouds.No wind93%30.12 "HgN/A
5:50 PM41 °FPassing clouds.2 mph93%30.12 "HgN/A
5:20 PM41 °FPartly cloudy.3 mph93%30.09 "HgN/A
4:50 PM41 °FRain. Passing clouds.3 mph93%30.09 "Hg4 mi
4:20 PM41 °FLight rain. Partly sunny.2 mph93%30.07 "Hg4 mi
3:50 PM41 °FScattered showers. Partly sunny.2 mph93%30.07 "Hg5 mi
3:20 PM43 °FDrizzle. Broken clouds.2 mph87%30.07 "Hg4 mi
2:50 PM43 °FDrizzle. Partly sunny.5 mph87%30.04 "Hg4 mi
2:20 PM43 °FPartly sunny.6 mph93%30.04 "Hg5 mi
1:50 PM43 °FPartly sunny.5 mph87%30.04 "Hg6 mi
1:20 PM43 °FScattered clouds.3 mph87%30.04 "HgN/A
12:50 PM41 °FScattered clouds.5 mph93%30.04 "HgN/A
12:20 PM41 °FPartly sunny.5 mph93%30.01 "HgN/A
11:50 AM41 °FPartly sunny.5 mph93%30.01 "Hg6 mi
11:20 AM41 °FScattered clouds.5 mph93%30.01 "Hg6 mi
10:50 AM41 °FScattered clouds.5 mph93%30.01 "Hg6 mi
10:20 AM39 °FBroken clouds.5 mph100%30.01 "Hg5 mi
9:50 AM39 °FPartly sunny.3 mph100%29.98 "Hg4 mi
9:20 AM39 °FPartly sunny.3 mph100%29.98 "Hg4 mi
8:50 AM39 °FDrizzle. Partly sunny.5 mph93%29.95 "Hg4 mi
8:20 AM37 °FPartly sunny.5 mph100%29.95 "Hg4 mi
7:50 AM37 °FLight rain. Passing clouds.5 mph100%29.95 "Hg4 mi
7:20 AM37 °FRain. Passing clouds.3 mph100%29.92 "Hg4 mi
6:50 AM37 °FLight rain. Passing clouds.6 mph100%29.92 "Hg4 mi
6:20 AM37 °FRain. Passing clouds.3 mph100%29.89 "Hg4 mi
Weather by CustomWeather, © 2015

See weather overviewHow to use our weather pages